{"data":{"norad_id":55781,"epoch":"2026-05-25T02:49:41.484000Z","epoch_age_seconds":55019,"freshness":"FRESH","line1":"1 55781U 23028AS  26145.11784125 -.00000036  00000+0  47415-5 0  9993","line2":"2 55781  70.0004  31.6967 0002500 270.7228  89.3645 14.98333792177982","mean_motion":14.98333792,"eccentricity":0.00025,"inclination_deg":70.0004,"raan_deg":31.6967,"arg_perigee_deg":270.7228,"mean_anomaly_deg":89.3645,"bstar":4.7415e-6,"rev_number":17798,"period_min":96.10675589702,"perigee_km":570.30661923082,"apogee_km":573.78170981308,"semimajor_km":6950.181164522,"source":"CELESTRAK","updated_at":"2026-05-25T13:38:17.885946Z"}}